GW3953 Weather Reports


Display with metric or nautical units.
time (UTC)temp
F
wind
direction
speed
MPH
gust
MPH
rain 1hr
in
rain 24hr
in
rain mn
in
humidity
%
barometer
mb
20260504081535 49 287 0.0 0.0 0.00 0.00 0.00 75 1048.1
20260504081034 50 287 0.0 0.0 0.00 0.00 0.00 75 1047.7
20260504080534 50 287 0.0 0.0 0.00 0.00 0.00 74 1047.7
20260504070234 51 287 0.0 0.0 0.00 0.00 0.00 70 1048.1
20260504060134 52 287 0.0 0.0 0.00 0.00 0.00 70 1048.8
20260504050535 53 287 0.0 0.0 0.00 0.00 0.00 68 1049.1
20260504045534 53 287 0.0 0.0 0.00 0.00 0.00 67 1049.1
20260504045034 53 287 0.0 0.0 0.00 0.00 0.00 66 1049.1
20260504044534 53 287 0.0 0.0 0.00 0.00 0.00 66 1049.1
20260504044034 54 287 0.0 0.0 0.00 0.00 0.00 65 1049.1
20260504043534 54 287 0.0 0.0 0.00 0.00 0.00 65 1049.1
20260504043034 55 287 0.0 0.0 0.00 0.00 0.00 64 1049.1
20260504042434 55 287 0.0 0.0 0.00 0.00 0.00 62 1049.1
20260504041934 56 287 0.0 0.0 0.00 0.00 0.00 61 1049.1
20260504041434 56 287 0.0 0.0 0.00 0.00 0.00 59 1049.1
20260504040934 56 287 0.0 0.0 0.00 0.00 0.00 59 1049.1
20260504040434 56 287 0.0 0.0 0.00 0.00 0.00 59 1049.1
20260504035934 56 287 0.0 0.0 0.00 0.00 0.00 59 1049.1
20260504035434 57 287 0.0 0.0 0.00 0.00 0.00 60 1049.1
20260504034834 57 287 0.0 0.0 0.00 0.00 0.00 60 1049.1
20260504034234 57 286 0.0 0.0 0.00 0.00 0.00 60 1049.1
20260504033634 57 288 0.0 0.0 0.00 0.00 0.00 61 1049.1
20260504033135 57 288 0.0 0.0 0.00 0.00 0.00 60 1049.1
20260504032634 57 288 0.0 0.0 0.00 0.00 0.00 60 1049.1
20260504032135 58 288 0.0 0.0 0.00 0.00 0.00 60 1049.1
20260504031634 58 288 0.0 0.0 0.00 0.00 0.00 59 1049.1
20260504031034 58 288 0.0 0.0 0.00 0.00 0.00 58 1048.8
20260504030534 59 288 0.0 0.0 0.00 0.00 0.00 57 1048.8
20260504030034 59 288 0.0 0.0 0.00 0.00 0.00 57 1048.8
20260504025535 59 289 0.0 0.0 0.00 0.00 0.00 56 1048.8
20260504025033 59 254 0.0 0.0 0.00 0.00 0.00 56 1048.4
20260504024534 59 254 0.0 0.0 0.00 0.00 0.00 57 1048.4
20260504023934 59 254 0.0 0.0 0.00 0.00 0.00 57 1048.4
20260504023434 59 254 0.0 0.0 0.00 0.00 0.00 57 1048.8
20260504022833 59 254 0.0 0.0 0.00 0.00 0.00 57 1048.8
20260504022234 59 253 0.0 0.0 0.00 0.00 0.00 57 1048.8
20260504021734 60 263 0.0 0.0 0.00 0.00 0.00 56 1048.4
20260504021233 60 252 0.0 0.0 0.00 0.00 0.00 56 1048.4
20260504020734 60 252 0.0 0.0 0.00 0.00 0.00 55 1048.4
20260504020234 60 261 0.0 0.0 0.00 0.00 0.00 55 1048.4
20260504015734 60 261 0.0 0.0 0.00 0.00 0.00 54 1048.4
20260504015135 60 261 0.0 0.0 0.00 0.00 0.00 54 1048.4
20260504014634 60 261 0.0 0.0 0.00 0.00 0.00 54 1048.4
20260504014135 60 261 0.0 0.0 0.00 0.00 0.00 54 1048.4
20260504013633 60 261 0.0 0.0 0.00 0.00 0.00 55 1048.4
20260504013134 60 241 0.0 0.0 0.00 0.00 0.00 55 1048.4
20260504012634 60 241 0.0 0.0 0.00 0.00 0.00 56 1048.1
20260504012134 60 241 0.0 0.0 0.00 0.00 0.00 56 1048.1
20260504011635 60 241 0.0 0.0 0.00 0.00 0.00 55 1048.1
20260504011135 60 241 0.0 0.0 0.00 0.00 0.00 55 1048.1
20260504010634 61 241 0.0 0.0 0.00 0.00 0.00 54 1048.1
20260504010134 61 241 0.0 0.0 0.00 0.00 0.00 53 1048.1
20260504005634 62 241 0.0 0.0 0.00 0.00 0.00 52 1048.1
20260504005134 62 241 0.0 0.0 0.00 0.00 0.00 51 1048.1
20260504004634 62 241 0.0 0.0 0.00 0.00 0.00 51 1048.1
20260504004134 63 241 0.0 0.0 0.00 0.00 0.00 50 1048.1
20260504003634 63 241 0.0 0.0 0.00 0.00 0.00 50 1048.1
20260504003134 63 241 0.0 0.0 0.00 0.00 0.00 50 1047.7
20260504002634 64 241 0.0 0.0 0.00 0.00 0.00 48 1047.7
20260504002034 64 241 0.0 0.0 0.00 0.00 0.00 48 1047.7
20260504001534 64 241 0.0 0.0 0.00 0.00 0.00 48 1047.7
20260504001034 64 241 0.0 0.0 0.00 0.00 0.00 48 1047.7
20260504000534 64 241 0.0 0.0 0.00 0.00 0.00 47 1047.7
20260504000034 65 241 0.0 0.0 0.00 0.00 0.00 48 1047.7
20260503235534 65 241 0.0 0.0 0.00 0.00 0.00 46 1047.7
20260503235033 65 241 0.0 0.0 0.00 0.00 0.00 46 1047.7
20260503234534 65 241 0.0 0.0 0.00 0.00 0.00 45 1047.7
20260503234034 66 241 0.0 0.0 0.00 0.00 0.00 47 1047.7
20260503233535 66 241 0.0 0.0 0.00 0.00 0.00 45 1047.7
20260503233034 66 231 0.0 0.0 0.00 0.00 0.00 45 1048.1
20260503232534 66 231 0.0 0.0 0.00 0.00 0.00 43 1048.1
20260503232034 67 230 0.0 0.0 0.00 0.00 0.00 43 1048.1
20260503231434 67 232 0.0 0.0 0.00 0.00 0.00 42 1048.1
20260503230734 68 206 0.0 0.0 0.00 0.00 0.00 40 1048.1
20260503230233 68 244 0.0 0.0 0.00 0.00 0.00 41 1048.1
20260503225734 67 244 0.0 0.0 0.00 0.00 0.00 41 1048.1
20260503225234 67 244 0.0 0.0 0.00 0.00 0.00 41 1048.1
20260503224734 67 243 0.0 0.0 0.00 0.00 0.00 40 1048.1
20260503224234 67 250 0.0 0.0 0.00 0.00 0.00 39 1048.1
20260503223734 67 268 0.0 0.0 0.00 0.00 0.00 40 1048.4
20260503223234 67 274 0.0 0.0 0.00 0.00 0.00 39 1048.4
20260503222734 68 274 0.0 0.0 0.00 0.00 0.00 38 1048.4
20260503222234 68 277 0.0 0.0 0.00 0.00 0.00 40 1048.4
20260503221734 68 278 0.0 0.0 0.00 0.00 0.00 38 1048.4
20260503221234 68 288 0.0 0.0 0.00 0.00 0.00 38 1048.4
20260503220734 68 247 0.0 0.0 0.00 0.00 0.00 36 1048.4
20260503220233 68 245 0.0 0.0 0.00 0.00 0.00 36 1048.4
20260503215734 68 248 0.0 0.0 0.00 0.00 0.00 36 1048.4
20260503215234 68 249 0.0 0.0 0.00 0.00 0.00 38 1048.4
20260503214634 69 249 0.0 0.0 0.00 0.00 0.00 34 1048.4
20260503214135 69 249 0.0 0.0 0.00 0.00 0.00 34 1048.4
20260503213634 69 225 0.0 0.0 0.00 0.00 0.00 35 1048.4
20260503213134 69 224 0.0 0.0 0.00 0.00 0.00 34 1048.4
20260503212634 70 248 0.0 0.0 0.00 0.00 0.00 35 1048.8
20260503212134 70 151 0.0 0.0 0.00 0.00 0.00 35 1048.8
20260503211634 69 29 0.0 0.0 0.00 0.00 0.00 34 1048.8
20260503211134 69 247 0.0 0.0 0.00 0.00 0.00 32 1048.8
20260503210534 69 158 0.0 0.0 0.00 0.00 0.00 35 1049.1
20260503205935 69 14 0.0 1.0 0.00 0.00 0.00 32 1049.1
20260503205434 69 8 0.0 0.0 0.00 0.00 0.00 32 1049.1
20260503204933 69 122 0.0 0.0 0.00 0.00 0.00 33 1049.1
20260503204434 69 188 0.0 0.0 0.00 0.00 0.00 33 1049.1
20260503203934 69 155 0.0 0.0 0.00 0.00 0.00 33 1049.1
20260503203434 69 293 0.0 0.0 0.00 0.00 0.00 33 1049.4
20260503202934 69 101 0.0 0.0 0.00 0.00 0.00 35 1049.4
20260503202434 69 22 0.0 0.0 0.00 0.00 0.00 35 1049.4
20260503201934 69 168 0.0 0.0 0.00 0.00 0.00 38 1049.4
20260503201434 68 188 0.0 0.0 0.00 0.00 0.00 37 1049.4
20260503200934 68 247 0.0 0.0 0.00 0.00 0.00 38 1049.8
20260503200434 68 129 0.0 0.0 0.00 0.00 0.00 38 1049.8
20260503195935 68 264 0.0 1.0 0.00 0.00 0.00 39 1049.8
20260503195433 68 157 0.0 0.0 0.00 0.00 0.00 39 1049.8
20260503194935 68 320 0.0 0.0 0.00 0.00 0.00 38 1050.1
20260503194434 68 23 0.0 0.0 0.00 0.00 0.00 39 1050.1
20260503193833 68 233 0.0 1.0 0.00 0.00 0.00 39 1050.1
20260503193233 67 163 0.0 1.0 0.00 0.00 0.00 39 1050.1
20260503192734 66 166 0.0 0.0 0.00 0.00 0.00 40 1050.5
20260503192234 66 215 0.0 0.0 0.00 0.00 0.00 38 1050.5
20260503191633 66 24 0.0 0.0 0.00 0.00 0.00 38 1050.8
20260503191134 66 284 0.0 0.0 0.00 0.00 0.00 39 1050.8
20260503190534 66 144 0.0 0.0 0.00 0.00 0.00 39 1050.8
20260503185934 66 246 0.0 0.0 0.00 0.00 0.00 38 1051.1
20260503185434 66 214 0.0 1.0 0.00 0.00 0.00 41 1051.1
20260503184934 66 274 0.0 0.0 0.00 0.00 0.00 40 1051.1
20260503184435 66 274 0.0 0.0 0.00 0.00 0.00 39 1051.1
20260503183934 65 181 0.0 0.0 0.00 0.00 0.00 41 1051.1
20260503183434 65 244 0.0 0.0 0.00 0.00 0.00 41 1051.1
20260503182934 64 250 0.0 0.0 0.00 0.00 0.00 42 1051.1
20260503182434 64 24 0.0 0.0 0.00 0.00 0.00 42 1051.1
20260503181934 64 228 0.0 0.0 0.00 0.00 0.00 41 1051.5
20260503181434 63 239 0.0 0.0 0.00 0.00 0.00 43 1051.5
20260503180734 64 210 0.0 0.0 0.00 0.00 0.00 41 1051.5
20260503180134 64 259 0.0 0.0 0.00 0.00 0.00 43 1051.5
20260503175435 63 25 0.0 0.0 0.00 0.00 0.00 43 1051.8
20260503174734 62 207 0.0 1.0 0.00 0.00 0.00 44 1051.8
20260503174034 62 247 0.0 1.0 0.00 0.00 0.00 45 1051.8
20260503173534 62 208 0.0 0.0 0.00 0.00 0.00 46 1052.1
20260503173033 62 13 0.0 0.0 0.00 0.00 0.00 45 1052.1
20260503172534 61 332 0.0 1.0 0.00 0.00 0.00 46 1052.1
20260503172034 61 350 0.0 0.0 0.00 0.00 0.00 45 1052.1
20260503171434 60 15 0.0 0.0 0.00 0.00 0.00 45 1052.1
20260503170833 61 326 0.0 0.0 0.00 0.00 0.00 44 1052.5
20260503170233 61 14 0.0 0.0 0.00 0.00 0.00 44 1052.5
20260503150634 57 85 0.0 0.0 0.00 0.00 0.00 53 1053.2
20260503150134 57 132 0.0 0.0 0.00 0.00 0.00 53 1053.2
20260503131234 49 350 0.0 0.0 0.00 0.00 0.00 81 1052.8
20260503130734 49 18 0.0 0.0 0.00 0.00 0.00 84 1052.8
20260503130233 48 29 0.0 0.0 0.00 0.00 0.00 86 1052.8
20260503110634 42 29 0.0 0.0 0.00 0.00 0.00 93 1051.8
20260503110135 43 29 0.0 0.0 0.00 0.00 0.00 91 1051.8
20260503100135 44 29 0.0 0.0 0.00 0.00 0.00 91 1051.1